Location: Prairie State College
(41.5244°N, 87.6382°W)
Time: 18:16:50
(UTC-05:00)

Cosmos 1140 Rocket - Visible Passes

Search period start: 30 July 2014 00:00
Search period end: 09 August 2014 00:00
Orbit: 746 x 769 km, 74.1° (Epoch: 29 July)

Date Brightness Start Highest point End Pass type
(mag) Time Alt. Az. Time Alt. Az. Time Alt. Az.
30 Jul 6.1 03:54:30 10° SE 03:57:11 14° E 03:59:52 10° ENE visible
31 Jul 3.9 04:53:02 10° S 04:58:13 67° ESE 05:03:23 10° NNE visible
01 Aug 4.9 04:13:27 10° SSE 04:18:11 36° ESE 04:22:55 10° NE visible
02 Aug 5.7 03:34:36 10° SE 03:38:17 20° E 03:41:58 10° NE visible
02 Aug 3.9 05:14:38 10° SW 05:19:41 50° WNW 05:24:46 10° N visible
03 Aug 3.5 04:34:30 11° SSW 04:39:28 90° WNW 04:44:43 10° NNE visible
04 Aug 4.2 03:55:33 17° S 03:59:23 49° ESE 04:04:24 10° NNE visible
05 Aug 5.2 03:16:33 17° SE 03:19:25 27° E 03:23:44 10° NE visible
05 Aug 4.2 04:56:38 12° SW 05:01:04 37° WNW 05:05:53 10° N visible
06 Aug 5.8 02:37:31 12° ESE 02:39:35 15° E 02:42:19 10° ENE visible
06 Aug 3.5 04:17:35 24° SW 04:20:46 67° WNW 04:25:58 10° NNE visible
07 Aug 3.7 03:38:30 36° S 03:40:37 68° ESE 03:45:48 10° NNE visible
07 Aug 5.3 05:19:41 10° W 05:22:58 17° NW 05:26:16 10° NNW visible
08 Aug 4.5 02:59:23 32° SE 03:00:35 37° ESE 03:05:20 10° NE visible
08 Aug 4.6 04:39:26 17° WSW 04:42:28 28° WNW 04:46:55 10° N visible
